sat.trackr.live / text

‹ back to catalog

STARLINK-32432

NORAD 61257 · 2024-175Q

PAYLOAD ACTIVE UNKNOWN

§ Identity

Operator
Country
US
Launch date
2024-09-25
Launch site
AFWTR
Launch vehicle
Mass (kg)
RCS (m²)

Purposes: comms

External: N2YO · Heavens-Above · Gunter

§ Orbital elements

Epoch: 2026-09-21T07:32:18.974400Z

Period
93.85 min
Inclination
53.1603°
Eccentricity
0.0000911
Mean motion
15.34378529 rev/d
Perigee alt
462.1 km
Apogee alt
463.4 km
Semi-major
6,840.9 km
B*
-3.8131e-5
RAAN
1.9074°
Arg perigee
84.5910°
Mean anomaly
275.5197°
Rev number
11,145

§ Raw data

STARLINK-324321 61257U 24175Q   26264.31410850 -.00001663  00000+0 -38131-4 0  99992 61257  53.1603   1.9074 0000911  84.5910 275.5197 15.34378529111455

JSON: /api/v1/satellites/61257 · /tle

For live sub-satellite position, see the globe view (requires WebGL).

§ Visibility from observer

Set your observer location to see the next 7 days of passes ≥ 10°. The values pass through the URL so the page stays shareable.

No JS? Fill the form by hand. The geolocation button needs JavaScript.